Presure
89 134 136 118 146 138 85 132 154 100 160 88 164 129 118 77 69 95 95 91 99 124 73 92 86 74 89 84 83 85 89 77 85 81 86 92 133 81 77 81 96 80 85 134 82 98 89 137 172
106 127 138 155 122 122 112 145 151 147 151 91 109 106 142 122 110 106 88 133 121 103 118 81 104 79 80 86 78 81 79 114 70 81 84 75 78 78 75 78 82 94 88 84 123 98 83 94 120
166 134 131 88 143 145 140 148 148 106 158 137 84 111 126 103 118 137 84 94 125 128 110 80 81 81 81 130 101 89 94 71 83 78 81 107 80 76 77 134 81 75 81 127 133 153 139 134 147
130 126 145 157 163 148 154 145 137 159 94 95 132 102 82 91 149 109 103 72 93 107 116 78 77 78 80 82 81 83 123 117 82 81 83 83 81 110 68 94 77 76 114 87 112 124 147 150 138
92 123 166 147 167 147 142 159 70 154 92 93 165 103 89 138 140 163 159 167 78 72 139 81 136 78 77 79 78 82 79 73 132 125 85 98 127 143 77 74 75 91 123 118 143 135 135 133 125
176 141 168 140 162 149 142 87 82 76 128 114 144 85 136 88 156 122 129 158 162 115 88 82 89 105 81 82 89 123 145 123 124 108 81 125 99 91 72 107 95 123 166 162 139 143 132 124 114
152 169 158 80 134 146 149 156 131 85 77 94 163 127 131 82 103 121 161 153 145 160 133 95 83 99 153 140 102 90 101 121 112 106 77 78 116 116 144 143 169 131 138 85 152 137 148 87 95
186 189 143 143 145 186 134 150 69 150 83 152 145 142 136 142 161 122 161 89 172 162 149 138 153 175 143 140 141 93 129 102 120 133 148 153 162 152 156 147 176 160 138 111 141 145 126 88 85
196 188 168 165 151 157 164 153 136 157 156 160 160 149 146 85 142 152 156 166 162 132 153 77 119 132 126 146 82 93 94 120 87 78 152 124 120 160 152 152 139 154 161 155 111 93 164 169 89
193 206 176 184 167 171 131 145 186 184 167 161 161 158 163 145 144 138 143 160 170 85 119 78 110 171 122 117 109 87 87 121 114 111 121 136 78 123 93 166 145 95 88 91 90 84 93 117 101
210 192 193 181 177 182 158 95 160 155 172 178 158 158 170 156 151 155 157 166 157 154 156 162 159 153 142 167 122 137 83 87 85 140 136 141 125 102 95 84 84 145 85 95 155 144 155 91 86
219 203 197 68 182 181 179 112 142 140 152 147 172 166 168 156 150 162 165 168 162 167 170 154 86 151 150 137 124 130 93 175 88 119 83 116 126 167 149 156 158 158 158 156 156 152 160 168 163
223 218 197 185 197 176 135 164 158 164 116 155 155 173 150 178 144 148 165 152 149 160 119 171 160 158 151 162 134 146 134 157 150 170 173 147 162 155 151 149 153 154 159 143 163 170 169 167 159
214 203 153 193 187 194 188 185 181 99 135 148 170 175 169 187 94 173 156 148 149 152 163 151 153 143 141 142 154 121 157 159 156 151 157 153 161 161 164 145 156 152 142 155 155 165 152 159 155
231 218 216 197 193 179 186 204 206 112 165 174 177 159 168 176 179 162 156 65 71 162 158 157 136 153 132 126 149 123 145 155 151 157 174 161 152 150 153 151 160 161 154 162 154 157 153 176 162
342 240 222 217 198 195 185 185 176 186 153 135 193 74 173 93 180 187 153 147 153 164 159 140 140 149 140 142 145 144 145 155 153 148 167 165 151 142 146 161 156 157 157 154 153 145 148 165 163
403 427 307 221 211 202 198 183 178 187 185 170 184 167 101 184 186 173 172 151 161 155 154 136 158 152 147 154 144 163 153 156 161 159 171 162 160 150 149 144 158 153 159 158 152 144 163 178 159
550 528 243 432 232 211 207 198 185 184 195 179 177 130 187 153 63 172 168 159 159 154 161 142 165 145 147 158 145 152 154 162 166 169 167 168 162 149 154 156 165 157 156 150 141 136 158 170 173
492 499 424 416 438 236 211 201 195 189 191 179 175 97 83 178 162 169 138 153 158 158 153 154 144 153 163 150 150 142 166 154 148 152 177 170 171 169 158 150 167 156 156 154 134 129 146 120 151
488 498 476 404 416 429 278 214 190 195 196 199 182 182 181 182 138 168 165 159 158 158 158 156 155 151 154 148 147 150 155 150 160 163 169 180 170 156 160 153 158 150 144 147 150 147 136 166 160
498 495 496 407 387 406 247 264 196 194 135 184 188 188 180 124 187 166 141 166 148 165 165 160 166 154 159 151 156 150 152 156 158 162 160 168 161 150 155 169 151 130 148 157 142 145 142 156 157
475 504 502 423 373 369 355 284 266 204 196 187 195 133 187 188 87 176 176 167 167 145 154 159 159 151 151 152 154 161 158 159 151 156 152 156 152 154 148 141 141 142 150 155 135 150 161 154 142
487 482 507 456 372 367 381 408 275 258 206 196 188 194 191 185 196 202 172 165 158 146 160 96 173 165 159 163 153 154 153 156 161 171 162 151 157 145 145 154 161 153 137 148 154 159 160 157 137
465 464 147 418 387 358 372 374 330 270 251 216 199 190 194 183 181 190 196 188 180 177 177 181 180 171 173 178 162 159 160 159 164 169 149 136 142 144 141 141 142 145 150 152 156 154 156 156 163
322 445 116 419 424 364 360 362 390 278 259 244 227 203 175 189 185 160 192 191 191 180 173 161 152 133 164 153 155 151 158 156 164 146 138 140 140 145 149 144 143 148 139 147 150 148 159 145 158
413 429 459 418 396 355 364 391 365 397 273 248 234 220 200 192 168 147 189 179 114 177 154 161 171 154 149 142 161 156 152 156 158 163 161 132 161 161 152 155 143 145 147 154 158 153 161 155 156
405 417 412 440 402 391 353 343 361 363 375 268 240 231 218 206 190 164 179 187 184 130 178 156 157 157 154 154 151 137 144 147 145 145 146 151 151 149 150 150 153 158 155 153 153 156 159 151 159
410 411 397 429 415 401 389 361 335 351 357 334 256 238 228 219 211 160 190 176 176 181 180 167 168 163 159 160 162 156 158 153 152 154 151 153 154 152 153 152 152 147 150 151 159 160 152 156 158
298 406 430 408 402 433 407 409 337 339 353 357 339 250 231 224 219 210 204 160 191 175 184 178 171 107 153 160 164 159 154 153 153 155 158 159 160 159 158 159 161 162 162 155 159 153 155 154 155
269 289 356 418 388 402 411 402 398 330 334 353 356 371 251 228 223 218 204 210 204 142 157 185 177 163 167 168 136 160 157 155 145 152 154 154 153 154 154 158 159 162 161 159 154 153 153 152 154
Wind_Speed
37 70 64 56 58 56 30 62 69 39 64 29 57 48 43 20 21 37 37 20 31 42 15 19 18 13 16 14 12 11 14 8 11 7 10 14 25 5 7 8 14 11 14 28 17 19 18 22 48
54 66 64 65 58 59 61 72 71 69 69 40 48 52 59 53 39 43 30 45 36 33 34 17 32 17 17 16 13 14 13 26 7 11 12 9 8 9 9 11 12 18 17 16 27 20 21 24 25
85 76 61 48 67 63 71 74 77 49 70 60 36 56 55 39 43 52 25 30 44 43 41 21 21 22 20 41 27 21 23 13 16 14 14 18 14 12 14 33 16 15 19 31 31 37 32 29 31
78 71 70 70 64 59 74 81 74 83 49 51 61 46 29 37 59 43 47 32 44 41 41 24 24 24 24 22 20 20 42 39 20 19 18 17 18 36 11 23 17 19 30 22 30 31 36 36 35
50 73 78 71 70 68 83 85 24 85 48 51 76 57 39 56 61 66 65 63 31 28 54 34 44 27 23 23 23 26 23 22 43 45 24 30 45 43 20 20 20 27 40 36 41 38 37 37 37
107 84 81 75 83 82 85 41 39 39 66 52 70 41 64 38 66 62 58 62 61 51 43 39 43 41 30 29 37 50 47 47 40 36 25 48 35 30 20 39 30 40 44 45 41 44 41 40 37
91 100 81 21 77 85 89 98 80 52 44 61 87 64 61 36 53 54 68 63 57 59 56 53 41 51 54 52 39 32 45 49 48 34 27 28 46 41 49 43 38 46 48 35 47 47 50 34 36
118 120 82 83 87 99 95 100 31 87 48 82 72 65 64 70 75 55 68 57 66 61 59 58 57 58 57 55 54 43 52 46 44 53 48 47 46 47 44 49 39 47 53 44 41 49 44 40 40
126 109 90 93 93 97 100 101 91 93 88 86 81 70 70 41 67 69 67 72 70 58 62 42 54 58 57 57 40 40 46 45 42 34 48 48 41 42 47 50 49 49 47 51 41 43 46 48 44
111 127 99 118 101 103 95 92 107 103 95 90 82 84 79 72 74 66 69 74 73 50 56 48 54 61 50 49 51 48 48 51 50 50 52 53 34 51 44 47 47 43 42 44 46 47 48 51 51
129 98 127 110 103 104 102 47 103 86 96 101 86 85 84 77 79 75 78 78 69 67 67 66 63 61 62 58 60 56 45 49 49 54 57 54 49 49 50 46 46 53 49 49 51 53 54 54 54
146 110 123 19 105 106 104 46 96 75 89 85 98 92 83 76 79 85 86 82 76 72 75 67 62 65 63 64 65 63 48 57 53 54 37 63 62 50 57 49 48 50 49 52 54 55 54 51 51
148 144 122 110 123 99 81 103 97 98 60 97 95 96 76 93 79 83 89 73 69 72 65 73 69 66 64 63 63 63 61 60 59 56 56 59 56 55 56 56 56 54 47 58 52 52 52 54 53
142 134 89 126 124 127 117 109 107 44 80 83 103 97 92 91 44 93 92 75 73 74 78 72 71 70 68 68 64 71 62 59 58 60 60 60 55 54 53 60 58 53 62 53 52 51 55 55 56
158 142 146 127 135 114 126 137 118 67 107 105 106 97 97 94 98 91 97 21 29 83 80 78 73 73 70 72 68 73 62 61 62 61 59 57 59 61 59 59 55 50 55 53 52 54 56 52 57
126 167 150 155 140 136 129 120 105 123 92 78 108 29 101 42 100 98 93 89 83 85 81 75 76 76 74 73 72 70 66 66 65 65 63 59 64 64 60 59 52 56 55 56 53 57 59 57 58
74 74 135 163 149 150 138 122 114 130 110 100 107 108 56 102 103 103 101 91 93 84 82 77 83 80 80 76 74 73 70 69 67 70 63 64 62 64 62 61 56 59 55 55 56 59 57 51 60
6 28 131 84 164 142 143 138 134 129 126 104 109 74 113 88 12 104 100 97 95 88 87 82 85 83 81 80 75 76 72 73 68 65 68 66 65 67 64 60 58 59 57 59 60 61 60 54 53
12 23 72 79 85 152 153 142 146 138 127 99 105 46 55 109 106 106 73 97 98 94 87 87 84 86 84 83 82 77 74 75 75 72 66 68 67 68 66 64 61 60 58 60 63 65 63 64 61
12 21 38 76 79 88 143 158 136 143 140 136 118 120 118 118 82 109 100 97 97 97 94 89 89 88 84 86 86 83 77 76 75 69 67 67 69 68 67 67 63 62 65 64 61 63 65 58 60
10 17 24 68 75 77 104 145 151 138 91 121 127 132 119 71 115 109 91 101 89 104 101 95 93 91 92 91 90 83 78 79 76 72 73 70 71 70 65 66 64 66 66 63 64 65 65 63 61
4 13 21 49 72 82 106 138 143 153 152 133 137 89 132 128 44 112 111 97 98 94 97 97 95 92 93 91 88 89 81 82 80 76 78 74 72 69 67 71 71 71 69 67 67 66 62 64 67
11 12 26 28 67 75 76 74 139 141 150 151 136 139 134 120 128 126 109 103 97 96 101 56 100 97 96 94 89 90 84 84 83 77 79 77 76 73 74 70 69 70 72 71 69 63 63 66 69
13 12 29 31 54 69 70 75 114 139 141 145 149 134 138 121 108 116 118 110 105 103 102 100 98 96 95 92 93 90 88 87 87 82 80 81 79 77 77 76 76 75 73 73 69 67 68 69 63
9 10 20 28 26 58 65 69 62 135 136 142 144 147 121 134 122 89 116 109 107 101 99 99 97 94 96 94 92 91 89 93 91 87 84 83 84 83 81 82 80 75 74 74 73 74 71 73 68
24 19 20 24 32 52 54 43 65 57 136 138 134 138 143 140 110 88 117 100 42 103 91 99 98 98 98 97 96 92 91 95 97 92 86 83 84 84 85 85 82 79 79 78 75 75 73 72 68
30 17 12 23 25 31 52 60 61 66 65 133 134 135 137 141 139 108 110 113 111 57 106 101 102 101 103 102 102 97 99 98 100 100 97 92 91 90 91 88 85 81 80 78 77 76 75 76 73
34 24 12 11 27 27 30 45 63 62 64 94 132 135 133 133 138 106 134 107 105 108 111 104 107 106 107 106 105 98 97 100 100 100 98 97 95 93 92 89 85 83 81 81 80 79 79 80 77
83 32 10 4 6 12 25 25 57 61 60 61 87 133 132 133 137 135 134 101 127 108 117 112 110 58 109 109 108 103 100 101 100 101 101 101 100 100 97 95 90 87 85 84 81 82 83 84 83
85 79 53 7 13 7 17 24 29 56 59 57 60 60 132 137 136 131 130 133 136 79 99 123 115 112 112 113 86 106 105 104 104 103 101 103 102 103 105 101 92 88 86 86 83 87 85 89 89
Wind_Direction
236 227 227 229 223 227 241 231 233 227 230 216 228 223 224 213 232 228 237 219 234 219 214 216 207 211 214 222 204 212 219 203 226 227 252 257 236 272 302 308 286 307 304 251 307 288 298 257 247
230 239 230 223 228 231 239 232 233 230 229 229 227 229 223 225 228 230 240 221 216 227 222 213 223 222 223 234 217 233 217 233 234 236 221 256 270 269 290 290 288 283 291 290 261 279 297 273 273
230 233 229 235 221 223 228 231 235 235 233 228 232 232 229 230 231 231 237 228 217 224 231 221 223 235 228 228 238 236 244 241 241 245 235 231 233 256 251 250 288 291 286 260 268 254 263 265 263
241 235 236 228 225 226 224 228 230 232 240 240 220 237 229 242 229 235 231 234 244 229 229 239 233 227 233 237 233 238 239 242 249 250 250 254 247 250 279 251 264 266 275 287 272 265 268 265 264
238 236 229 236 224 224 226 231 229 232 239 245 230 244 244 226 228 235 234 237 236 238 227 247 235 237 229 235 236 245 243 252 238 245 258 258 252 251 253 259 272 266 267 271 264 266 265 262 265
238 236 229 224 227 223 231 232 236 238 234 232 229 246 237 239 232 238 236 233 233 241 243 245 246 239 241 243 254 241 235 246 242 247 256 252 258 264 261 263 265 265 253 257 266 262 265 269 272
234 237 227 228 239 228 232 225 236 235 242 236 229 232 228 235 244 235 236 235 235 232 234 245 247 247 235 237 244 246 256 247 254 249 256 261 263 261 252 256 255 262 262 278 259 267 262 274 273
237 237 234 230 227 229 236 230 234 236 237 231 235 232 234 233 231 235 237 241 240 233 234 234 236 239 238 240 240 252 242 258 252 247 249 249 250 254 255 254 254 256 261 269 261 261 273 281 283
238 234 230 232 227 226 226 229 243 234 239 236 234 238 236 231 239 240 239 239 240 237 235 247 240 242 243 241 247 247 254 247 256 262 247 254 256 254 257 256 254 256 256 259 270 272 262 264 282
242 237 232 235 227 235 246 239 233 232 233 239 235 237 236 240 239 238 236 238 239 242 241 243 242 244 241 246 248 249 248 249 249 252 252 254 262 256 265 255 259 261 266 264 272 279 279 271 277
241 247 234 235 229 227 231 228 231 241 233 235 239 240 238 236 240 234 239 236 239 240 241 239 240 240 239 244 243 244 250 252 256 249 249 251 255 260 261 264 266 258 266 266 262 265 265 277 279
242 247 238 205 238 234 229 236 246 247 240 246 235 235 238 237 240 236 236 236 238 237 238 239 245 239 241 239 246 243 250 244 255 253 263 257 258 249 253 253 252 253 257 259 264 267 271 272 272
240 243 246 249 241 243 248 237 238 231 240 238 240 235 233 233 239 243 238 241 241 239 241 241 242 242 243 246 243 246 246 247 248 250 248 250 251 251 252 254 255 256 261 262 267 268 269 270 271
243 242 241 244 244 244 246 240 235 231 245 234 234 232 237 233 237 227 241 240 239 241 241 243 241 243 243 245 247 247 249 250 249 248 250 249 254 251 251 254 253 256 260 262 264 268 269 272 271
242 245 239 242 240 244 244 241 242 257 238 234 233 239 232 231 233 231 236 229 234 236 239 243 242 242 244 247 247 247 249 251 252 254 254 251 248 250 253 255 257 261 259 264 264 267 269 273 270
230 236 241 236 237 236 239 242 240 241 244 247 233 227 231 227 234 235 237 245 241 235 236 242 244 245 245 247 248 250 251 256 254 253 256 252 251 252 255 258 260 259 261 262 263 266 268 272 271
235 218 230 236 237 234 236 238 240 242 237 233 237 240 231 231 231 231 232 241 239 241 239 242 241 243 246 247 249 249 251 254 252 257 251 253 254 254 254 255 259 258 262 263 264 266 272 280 271
230 224 232 218 233 235 234 235 238 240 240 234 236 241 239 231 232 232 231 237 239 239 238 239 239 244 246 245 249 249 251 252 253 252 254 253 255 254 258 259 261 257 260 261 263 268 273 278 280
220 206 211 210 220 229 233 234 234 238 239 232 233 191 237 233 236 235 231 236 239 239 238 239 241 242 241 247 245 250 248 249 252 253 253 253 253 254 257 258 262 257 262 261 265 268 271 267 275
230 208 210 209 212 219 220 231 233 234 234 238 238 238 236 234 233 235 233 235 237 240 239 238 239 242 243 246 247 246 246 250 251 251 254 254 254 254 256 259 261 260 261 263 267 269 271 278 278
230 209 206 209 208 213 210 223 229 232 232 233 234 236 236 233 230 232 230 232 239 238 239 240 240 240 241 243 246 246 247 250 252 251 251 252 252 255 259 263 262 262 263 269 266 270 272 277 279
13 190 186 197 207 208 213 215 218 226 229 231 235 230 237 238 217 230 232 231 234 236 239 240 241 241 242 244 246 248 247 249 249 251 252 253 254 256 255 256 259 261 264 268 267 271 278 275 273
57 148 158 166 208 209 211 218 217 219 226 231 232 236 237 237 241 239 230 231 229 236 239 247 243 242 244 244 246 248 248 249 251 252 253 253 254 255 256 259 261 262 264 267 270 275 277 277 273
62 136 240 178 205 209 213 213 213 217 221 227 232 232 237 237 233 239 239 235 235 237 239 241 241 241 243 243 244 247 250 251 252 251 250 252 254 255 257 259 259 261 265 268 272 273 274 276 283
44 108 235 171 174 211 211 211 218 215 219 222 226 230 228 236 238 231 240 239 237 235 235 236 237 237 242 243 245 246 248 251 252 250 250 252 254 255 256 259 260 263 264 267 269 270 276 272 280
45 72 165 182 203 215 214 214 215 218 216 221 225 227 230 234 228 240 238 230 237 232 228 233 237 239 239 240 244 244 246 249 252 253 251 253 253 256 257 258 260 262 264 268 272 274 278 277 279
36 43 79 157 182 211 215 214 218 218 220 217 222 225 227 230 232 229 232 237 238 237 235 228 233 235 238 239 240 242 244 247 251 253 254 253 253 254 257 258 261 264 267 269 271 274 276 274 280
40 43 47 118 185 203 221 221 217 220 223 219 218 223 226 228 230 237 235 229 230 233 235 231 235 235 237 239 241 243 242 244 248 252 254 256 257 256 258 259 260 261 265 267 272 274 273 276 278
31 46 97 106 119 184 193 207 221 221 222 223 222 220 223 227 229 230 233 235 236 237 236 235 235 236 235 240 242 241 241 243 246 250 254 257 259 261 260 260 261 264 267 268 271 270 272 274 274
31 28 34 149 20 227 204 216 225 223 224 226 226 224 221 225 229 229 232 233 235 231 236 237 236 233 238 241 251 242 242 244 245 249 251 254 257 259 261 262 261 263 264 266 266 268 269 271 273